Location: Buffign�court
(47.8126°N, 6.0176°E)
Time: 20:37:32
(UTC+00:00)

Cosmos 1727 Rocket - Pass Details

Date: 16 June 2021
Orbit: 960 x 997 km, 82.9° (Epoch: 23 July)

Event Time Altitude Azimuth Distance (km) Brightness Sun altitude
Rises 20:26:18 0° 178° (S) 3,697 6.6 -7.0°
Reaches altitude 10° 20:28:50 10° 176° (S) 2,749 5.9 -7.3°
Maximum altitude 20:35:05 69° 95° (E) 1,053 4.1 -8.0°
Drops below altitude 10° 20:41:20 10° 13° (NNE) 2,744 6.9 -8.7°
Sets 20:43:51 0° 11° (NNE) 3,691 7.6 -8.9°
